�������l�o���
Date,Time,MP-1(��Sv/h),MP-2(��Sv/h),MP-3(��Sv/h),MP-4(��Sv/h),MP-5(��Sv/h),MP-6(��Sv/h),MP-7(��Sv/h),MP-8(��Sv/h),����,����(m/s),���J
2013/07/17,00:00,2.8,5.0,5.7,5.1,5.4,2.8,3.4,3.3,�k�k��,2.0,��
2013/07/17,00:10,2.8,5.0,5.7,5.1,5.4,2.8,3.4,3.3,�k�k��,2.0,��
2013/07/17,00:20,2.8,5.0,5.7,5.1,5.4,2.9,3.4,3.3,�k�k��,2.0,��
2013/07/17,00:30,2.8,5.0,5.7,5.1,5.4,2.9,3.4,3.3,�k,2.2,��
2013/07/17,00:40,2.8,5.0,5.7,5.1,5.4,2.9,3.4,3.3,�k�k��,2.3,��
2013/07/17,00:50,2.8,5.0,5.7,5.1,5.4,2.9,3.4,3.3,�k,2.1,��
2013/07/17,01:00,2.8,5.0,5.7,5.1,5.4,2.8,3.4,3.3,�k�k��,1.8,��
2013/07/17,01:10,2.8,5.0,5.7,5.1,5.4,2.8,3.4,3.3,�k�k��,1.9,��
2013/07/17,01:20,2.8,5.0,5.7,5.1,5.4,2.8,3.4,3.3,�k,1.6,��
2013/07/17,01:30,2.8,5.0,5.7,5.1,5.4,2.8,3.4,3.3,�k,1.9,��
2013/07/17,01:40,2.8,5.0,5.7,5.1,5.4,2.8,3.4,3.3,�k,1.3,��
2013/07/17,01:50,2.8,5.0,5.7,5.1,5.4,2.8,3.4,3.3,�k�k��,1.6,��
2013/07/17,02:00,2.8,5.0,5.7,5.1,5.4,2.8,3.4,3.3,�k,1.3,��
2013/07/17,02:10,2.8,5.0,5.7,5.1,5.4,2.8,3.4,3.3,�k,1.0,��
2013/07/17,02:20,2.8,5.0,5.7,5.1,5.4,2.8,3.4,3.3,�k,1.4,��
2013/07/17,02:30,2.8,5.0,5.7,5.1,5.4,2.8,3.4,3.3,�k,1.4,��
2013/07/17,02:40,2.8,5.0,5.7,5.1,5.4,2.8,3.4,3.3,�k,1.5,��
2013/07/17,02:50,2.8,5.0,5.7,5.1,5.4,2.8,3.4,3.3,�k,1.2,��
2013/07/17,03:00,2.8,5.0,5.7,5.1,5.4,2.8,3.4,3.3,�k,1.3,��
2013/07/17,03:10,2.8,5.0,5.7,5.1,5.4,2.8,3.4,3.3,�k�k��,1.5,��
2013/07/17,03:20,2.8,5.0,5.7,5.1,5.4,2.8,3.4,3.3,�k,1.2,��
2013/07/17,03:30,2.8,5.0,5.7,5.1,5.4,2.8,3.4,3.3,�k�k��,1.6,��
2013/07/17,03:40,2.8,5.0,5.7,5.1,5.4,2.8,3.4,3.3,�k,1.4,��
2013/07/17,03:50,2.8,5.0,5.7,5.1,5.4,2.8,3.4,3.3,�k,0.7,��
2013/07/17,04:00,2.8,5.0,5.7,5.1,5.4,2.9,3.4,3.3,�k,1.4,��
2013/07/17,04:10,2.8,5.0,5.7,5.1,5.4,2.8,3.4,3.3,-,CALM,��
2013/07/17,04:20,2.8,5.0,5.7,5.1,5.4,2.9,3.4,3.3,�k�k��,1.1,��
2013/07/17,04:30,2.8,5.0,5.7,5.1,5.4,2.8,3.4,3.3,�k,0.7,��
2013/07/17,04:40,2.8,5.0,5.7,5.1,5.4,2.8,3.4,3.3,�k,0.8,��
2013/07/17,04:50,2.8,5.0,5.7,5.1,5.4,2.8,3.4,3.3,�k�k��,0.9,��
2013/07/17,05:00,2.8,5.0,5.7,5.1,5.4,2.9,3.4,3.3,�k�k��,0.6,��
2013/07/17,05:10,2.8,5.0,5.7,5.1,5.4,2.8,3.4,3.3,�k�k��,0.9,��
2013/07/17,05:20,2.8,5.0,5.7,5.1,5.4,2.8,3.4,3.3,-,CALM,��
2013/07/17,05:30,2.8,5.0,5.7,5.1,5.4,2.8,3.4,3.3,�k��,1.1,��
2013/07/17,05:40,2.8,5.0,5.7,5.1,5.4,2.8,3.4,3.3,�k��,0.6,��
2013/07/17,05:50,2.8,5.0,5.7,5.1,5.4,2.9,3.4,3.3,�k,0.8,��
2013/07/17,06:00,2.8,5.0,5.7,5.1,5.4,2.8,3.4,3.3,�k�k��,0.8,��
2013/07/17,06:10,2.8,5.0,5.7,5.1,5.4,2.9,3.4,3.3,�k��,1.1,��
2013/07/17,06:20,2.8,5.0,5.7,5.1,5.4,2.9,3.4,3.3,���k��,0.7,��
2013/07/17,06:30,2.8,5.0,5.7,5.1,5.4,2.9,3.4,3.3,-,CALM,��
2013/07/17,06:40,2.8,5.0,5.7,5.1,5.4,2.8,3.4,3.3,�k��,0.7,��
2013/07/17,06:50,2.8,5.0,5.7,5.1,5.4,2.8,3.4,3.3,-,CALM,��
2013/07/17,07:00,2.8,5.0,5.7,5.1,5.4,2.8,3.4,3.3,��,1.2,��
2013/07/17,07:10,2.8,5.0,5.7,5.1,5.4,2.8,3.4,3.3,��,0.8,��
2013/07/17,07:20,2.8,5.0,5.7,5.1,5.4,2.8,3.4,3.3,���k��,1.7,��
2013/07/17,07:30,2.8,5.0,5.7,5.1,5.4,2.8,3.4,3.3,���k��,1.9,��
2013/07/17,07:40,2.8,5.0,5.7,5.1,5.4,2.9,3.4,3.3,���k��,2.7,��
2013/07/17,07:50,2.8,5.0,5.7,5.1,5.4,2.8,3.4,3.3,���k��,2.2,��
2013/07/17,08:00,2.8,5.0,5.7,5.1,5.4,2.8,3.4,3.3,���k��,2.5,��
2013/07/17,08:10,2.8,5.0,5.7,5.1,5.4,2.8,3.4,3.3,���k��,3.0,��
2013/07/17,08:20,2.8,5.0,5.7,5.1,5.4,2.9,3.4,3.3,�k��,2.3,��
2013/07/17,08:30,2.8,5.0,5.7,5.1,5.4,2.9,3.4,3.3,�k��,3.0,��
2013/07/17,08:40,2.8,5.0,5.7,5.1,5.4,2.8,3.4,3.3,�k��,3.2,��
2013/07/17,08:50,2.8,5.0,5.7,5.1,5.4,2.9,3.4,3.3,�k��,2.0,��
2013/07/17,09:00,2.8,5.0,5.7,5.1,5.4,2.9,3.4,3.3,���k��,2.5,��
2013/07/17,09:10,2.8,5.0,5.7,5.1,5.4,2.8,3.4,3.3,���k��,1.6,��
2013/07/17,09:20,2.8,5.0,5.7,5.1,5.4,2.8,3.4,3.3,���k��,1.9,��
2013/07/17,09:30,2.8,5.0,5.7,5.1,-,2.8,3.4,3.3,�k��,2.3,��
2013/07/17,09:40,2.8,5.0,5.7,5.1,-,2.9,3.4,3.3,���k��,2.4,��
2013/07/17,09:50,2.8,5.0,5.7,5.1,-,2.8,3.4,3.3,���k��,1.6,��
2013/07/17,10:00,2.8,5.0,5.7,5.1,-,2.9,3.4,3.3,���k��,1.7,��
2013/07/17,10:10,2.8,5.0,5.7,5.1,-,2.9,3.4,3.3,���k��,1.7,��
2013/07/17,10:20,2.8,5.0,5.7,5.1,-,2.9,3.4,3.3,���k��,1.5,��
2013/07/17,10:30,2.8,5.0,5.7,5.1,-,2.9,3.4,3.3,��,1.9,��
2013/07/17,10:40,2.8,5.0,5.7,5.1,-,2.9,3.4,3.3,��,1.2,��
2013/07/17,10:50,2.8,5.0,5.7,5.1,-,2.9,3.4,3.3,��,1.2,��
2013/07/17,11:00,2.8,5.0,5.7,5.1,-,2.9,3.4,3.3,���쓌,1.6,��
2013/07/17,11:10,2.8,5.0,5.7,5.1,-,2.9,3.4,3.3,�쓌,2.1,��
2013/07/17,11:20,2.8,5.0,5.7,5.1,-,2.9,3.4,3.3,���쓌,1.4,��
2013/07/17,11:30,2.8,5.0,5.7,5.1,-,2.8,3.4,3.3,���쓌,1.3,��
2013/07/17,11:40,2.8,5.0,5.7,5.1,5.4,2.9,3.4,3.3,���쓌,1.3,��
2013/07/17,11:50,2.8,5.0,5.7,5.1,5.4,2.9,3.4,3.3,��쓌,1.2,��
2013/07/17,12:00,2.8,5.0,5.7,5.1,5.4,2.9,3.4,3.3,��쓌,0.7,��
2013/07/17,12:10,2.8,5.0,5.7,5.1,5.4,2.9,3.4,3.3,��쓌,1.3,��
2013/07/17,12:20,2.8,5.0,5.7,5.1,5.4,2.9,3.4,3.3,��,1.0,��
2013/07/17,12:30,2.8,5.0,5.7,5.1,5.4,2.9,3.4,3.3,��,1.1,��
2013/07/17,12:40,2.8,5.0,5.7,5.1,5.4,2.9,3.4,3.3,�쓌,1.5,��
2013/07/17,12:50,2.8,5.0,5.7,5.1,5.4,2.9,-,3.3,�k��,0.9,��
2013/07/17,13:00,2.8,5.0,5.7,5.1,5.4,2.9,-,3.3,�쓌,1.4,��
2013/07/17,13:10,2.8,5.0,5.7,5.1,5.4,2.9,-,3.3,���쓌,1.0,��
2013/07/17,13:20,2.8,5.0,5.7,5.1,5.4,2.9,-,3.3,-,CALM,��
2013/07/17,13:30,2.8,5.0,5.7,5.1,5.4,2.9,-,3.3,�k��,1.2,��
2013/07/17,13:40,2.8,5.0,5.7,5.1,5.4,2.9,-,3.3,�k�k��,1.9,��
2013/07/17,13:50,2.8,5.0,5.7,5.1,5.4,2.9,-,3.3,�k�k��,1.4,��
2013/07/17,14:00,2.8,5.0,5.7,5.1,5.4,2.9,-,3.3,�k��,2.0,��
2013/07/17,14:10,2.8,5.0,5.7,5.1,5.4,2.9,-,3.3,�k��,1.7,��
2013/07/17,14:20,2.8,5.0,5.7,5.1,5.4,2.9,-,3.3,�k��,2.3,��
2013/07/17,14:30,2.8,5.0,5.7,5.1,5.4,2.9,-,3.3,�k��,1.7,��
2013/07/17,14:40,2.8,5.0,5.7,5.1,5.4,2.9,-,3.3,���k��,0.8,��
2013/07/17,14:50,2.8,5.0,5.7,5.1,5.4,2.9,-,3.3,�k��,0.8,��
2013/07/17,15:00,2.8,5.0,5.7,5.1,5.4,2.9,3.4,3.3,�k,1.5,��
2013/07/17,15:10,2.8,5.0,5.7,5.1,5.4,2.9,3.4,3.3,�k��,1.3,��
2013/07/17,15:20,2.8,5.0,5.7,5.1,5.4,2.9,3.4,3.3,�k,1.4,��
2013/07/17,15:30,2.8,5.0,5.7,5.1,5.4,2.9,3.4,3.3,�k��,1.7,��
2013/07/17,15:40,2.8,5.0,5.7,5.1,5.4,2.9,3.4,3.3,�k��,1.4,��
2013/07/17,15:50,2.8,5.0,5.7,5.1,5.4,2.9,3.4,3.3,�k��,1.6,��
2013/07/17,16:00,2.8,5.0,5.7,5.1,5.4,2.9,3.4,3.3,�k��,1.5,��
2013/07/17,16:10,2.8,5.0,5.7,5.1,5.4,2.9,3.4,3.3,�k�k��,2.0,��
2013/07/17,16:20,2.8,5.0,5.7,5.1,5.4,2.9,3.4,3.3,�k��,1.6,��
2013/07/17,16:30,2.8,5.0,5.7,5.1,5.4,2.9,3.4,3.3,�k�k��,1.5,��
2013/07/17,16:40,2.8,5.0,5.7,5.1,5.4,2.9,3.4,3.3,�k��,1.5,��
2013/07/17,16:50,2.8,5.0,5.7,5.1,5.4,2.9,3.4,3.3,�k�k��,1.2,�L
2013/07/17,17:00,2.8,5.0,5.7,5.1,5.4,2.9,3.4,3.3,���k��,1.4,�L
2013/07/17,17:10,2.8,5.0,5.7,5.1,5.4,2.9,3.4,3.3,-,CALM,�L
2013/07/17,17:20,2.8,5.0,5.7,5.1,5.4,2.9,3.4,3.3,-,CALM,�L
2013/07/17,17:30,2.8,5.0,5.7,5.1,5.4,2.9,3.4,3.3,-,CALM,�L
2013/07/17,17:40,2.8,5.0,5.7,5.1,5.4,2.9,3.4,3.3,�쓌,0.9,�L
2013/07/17,17:50,2.8,5.0,5.7,5.1,5.4,2.9,3.4,3.3,���쓌,1.4,�L
2013/07/17,18:00,2.8,5.0,5.7,5.1,5.4,2.9,3.4,3.3,�쓌,1.8,�L
2013/07/17,18:10,2.8,4.9,5.7,5.1,5.4,2.9,3.4,3.3,��쓌,1.8,�L
2013/07/17,18:20,2.8,4.9,5.7,5.1,5.4,2.9,3.4,3.3,��,1.5,�L
2013/07/17,18:30,2.8,4.9,5.7,5.1,5.4,2.9,3.4,3.3,��쓌,1.8,�L
2013/07/17,18:40,2.8,4.9,5.7,5.1,5.4,2.8,3.4,3.3,�쓌,2.1,�L
2013/07/17,18:50,2.8,4.9,5.7,5.1,5.4,2.8,3.4,3.3,�쓌,2.0,�L
2013/07/17,19:00,2.8,4.9,5.7,5.1,5.4,2.8,3.4,3.3,��쓌,2.0,�L
2013/07/17,19:10,2.8,4.9,5.6,5.1,5.3,2.8,3.4,3.3,��쓌,2.9,�L
2013/07/17,19:20,2.8,4.9,5.6,5.1,5.3,2.8,3.4,3.3,��쓌,3.6,�L
2013/07/17,19:30,2.8,4.9,5.6,5.1,5.3,2.8,3.4,3.3,��쓌,4.5,�L
2013/07/17,19:40,2.8,4.9,5.6,5.1,5.3,2.8,3.4,3.3,��,5.0,�L
2013/07/17,19:50,2.8,4.9,5.6,5.0,5.3,2.8,3.4,3.3,��,4.4,�L
2013/07/17,20:00,2.8,4.9,5.6,5.0,5.3,2.8,3.4,3.3,��,3.0,�L
2013/07/17,20:10,2.8,4.8,5.6,5.0,5.3,2.8,3.4,3.3,��,4.1,�L
2013/07/17,20:20,2.8,4.8,5.6,5.0,5.3,2.8,3.4,3.3,��,2.3,�L
2013/07/17,20:30,2.8,4.8,5.5,5.0,5.3,2.8,3.4,3.3,��,2.8,�L
2013/07/17,20:40,2.7,4.8,5.5,5.0,5.2,2.8,3.4,3.3,�쐼,2.0,�L
2013/07/17,20:50,2.7,4.8,5.5,5.0,5.2,2.8,3.4,3.2,��쓌,3.1,�L
2013/07/17,21:00,2.7,4.8,5.5,5.0,5.2,2.8,3.4,3.2,��,2.2,�L
2013/07/17,21:10,2.7,4.7,5.5,5.0,5.2,2.8,3.4,3.2,-,CALM,�L
2013/07/17,21:20,2.7,4.7,5.5,4.9,5.2,2.8,3.4,3.2,��쓌,2.9,�L
2013/07/17,21:30,2.7,4.8,5.5,4.9,5.2,2.8,3.4,3.2,��쓌,2.6,�L
2013/07/17,21:40,2.7,4.8,5.5,5.0,5.2,2.8,3.4,3.2,��쓌,2.2,�L
2013/07/17,21:50,2.7,4.8,5.5,5.0,5.2,2.8,3.4,3.2,��쓌,1.7,�L
2013/07/17,22:00,2.7,4.8,5.5,5.0,5.2,2.8,3.4,3.2,��쓌,1.5,�L
2013/07/17,22:10,2.7,4.8,5.5,5.0,5.2,2.8,3.4,3.2,��쓌,1.9,�L
2013/07/17,22:20,2.7,4.8,5.5,5.0,5.2,2.8,3.4,3.2,��쓌,2.1,�L
2013/07/17,22:30,2.7,4.8,5.5,4.9,5.2,2.8,3.4,3.2,��쓌,2.0,�L
2013/07/17,22:40,2.7,4.8,5.5,4.9,5.2,2.8,3.4,3.2,��쓌,2.6,�L
2013/07/17,22:50,2.7,4.8,5.5,4.9,5.2,2.8,3.4,3.2,��쓌,3.3,�L
2013/07/17,23:00,2.7,4.8,5.5,4.9,5.2,2.8,3.4,3.2,��쓌,2.4,�L
2013/07/17,23:10,2.7,4.8,5.5,5.0,5.2,2.8,3.4,3.2,��,2.7,�L
2013/07/17,23:20,2.7,4.8,5.5,4.9,5.2,2.8,3.4,3.2,��쓌,2.2,�L
2013/07/17,23:30,2.7,4.7,5.5,4.9,5.2,2.8,3.4,3.2,��,1.7,�L
2013/07/17,23:40,2.7,4.7,5.5,4.9,5.2,2.8,3.4,3.2,��쓌,1.7,�L
2013/07/17,23:50,2.7,4.7,5.5,4.9,5.2,2.8,3.4,3.2,��,2.7,�L
